Palma de Mallorca, Spain

8:24 PM CEST on October 22, 2017 (GMT +0200)
Palma De Mallorca

Weather History for LEPA - February, 2012

Change the Weather History Date:

Friday, February 17, 2012

  Actual Average Record
Temperature  
Mean Temperature 47 °F -  
Max Temperature 60 °F 60 °F 64 °F (1997)
Min Temperature 34 °F 40 °F 32 °F (2005)
Degree Days  
Heating Degree Days 18    
Moisture  
Dew Point 42 °F    
Average Humidity 88    
Maximum Humidity 100    
Minimum Humidity 46    
Precipitation  
Precipitation 0.08 in 0.05 in - ()
Sea Level Pressure  
Sea Level Pressure 30.27 in    
Wind  
Wind Speed 2 mph ()    
Max Wind Speed 8 mph    
Max Gust Speed 18 mph    
Visibility 6.6 miles    
Events Rain    
Averages and records for this station are not official NWS values.
T = Trace of Precipitation, MM = Missing Value Source: Averaged Metar Reports

Daily Weather History Graph

Daily Weather History Graph

Search for Another Location

Airport or City:

Trip Planner

Search our weather history database for the weather conditions in past years. The results will help you decide how hot, cold, wet, or windy it might be!

Date:

Astronomy

Feb. 17, 2012 Rise Set
Actual Time 7:39 AM CET 6:27 PM CET
Civil Twilight 7:12 AM CET 6:54 PM CET
Nautical Twilight 6:40 AM CET 7:26 PM CET
Astronomical Twilight 6:09 AM CET 7:57 PM CET
Moon 4:16 AM CET (2/17) 2:04 PM CET (2/17)
Length of Visible Light 11h 42m
Length of Day
10h 47m
Waning Crescent, 21% of the Moon is Illuminated
Feb 17
Waning Crescent
Feb 21
New
Mar 1
First Quarter
Mar 8
Full
Mar 15
Last Quarter

Hourly Weather History & Observations

Time (CET) Temp. Windchill Dew Point Humidity Pressure Visibility Wind Dir Wind Speed Gust Speed Precip Events Conditions
12:00 AM 39.2 °F - 37.4 °F 93% 30.24 in 6.2 mi Calm Calm - N/A   Partly Cloudy
12:30 AM 39.2 °F - 37.4 °F 93% 30.24 in 6.2 mi Calm Calm - N/A   Partly Cloudy
1:00 AM 38 °F - 36 °F 88% 30.25 in 9 mi NNE 1.2 mph - -   Scattered Clouds
1:00 AM 37.4 °F - 35.6 °F 93% 30.24 in 6.2 mi NE 1.2 mph - N/A   Partly Cloudy
1:30 AM 37.4 °F - 35.6 °F 93% 30.24 in 6.2 mi NNE 1.2 mph - N/A   Partly Cloudy
2:00 AM 37.4 °F - 35.6 °F 93% 30.24 in 6.2 mi Calm Calm - N/A   Partly Cloudy
2:30 AM 37.4 °F - 35.6 °F 93% 30.24 in 6.2 mi Calm Calm - N/A   Partly Cloudy
3:00 AM 35.6 °F - 35.6 °F 100% 30.24 in 6.2 mi NNE 1.2 mph - N/A   Partly Cloudy
3:30 AM 35.6 °F - 33.8 °F 93% 30.24 in 6.2 mi Calm Calm - N/A   Partly Cloudy
4:00 AM 35.6 °F - 33.8 °F 93% 30.24 in 6.2 mi Variable 2.3 mph - N/A   Partly Cloudy
4:30 AM 35.6 °F 30.7 °F 35.6 °F 100% 30.24 in 6.2 mi East 5.8 mph - N/A   Partly Cloudy
5:00 AM 37.4 °F 32.8 °F 35.6 °F 93% 30.24 in 6.2 mi NNE 5.8 mph - N/A   Partly Cloudy
5:30 AM 39.2 °F 35.9 °F 37.4 °F 93% 30.24 in 6.2 mi NE 4.6 mph - N/A   Partly Cloudy
6:00 AM 39.2 °F 34.2 °F 37.4 °F 93% 30.24 in 6.2 mi NE 6.9 mph - N/A   Partly Cloudy
6:30 AM 39.2 °F 35.9 °F 37.4 °F 93% 30.24 in 6.2 mi NNE 4.6 mph - N/A   Partly Cloudy
7:00 AM 38 °F - 36 °F 92% 30.27 in 9 mi Calm Calm - -   Scattered Clouds
7:00 AM 37.4 °F 33.8 °F 37.4 °F 100% 30.27 in 6.2 mi NE 4.6 mph - N/A   Partly Cloudy
7:30 AM 39.2 °F - 37.4 °F 93% 30.27 in 6.2 mi Variable 1.2 mph - N/A   Partly Cloudy
8:00 AM 39.2 °F - 37.4 °F 93% 30.27 in 6.2 mi North 2.3 mph - N/A   Partly Cloudy
8:30 AM 39.2 °F 37.0 °F 39.2 °F 100% 30.27 in 6.2 mi North 3.5 mph - N/A   Partly Cloudy
9:00 AM 42.8 °F 41.1 °F 41.0 °F 93% 30.30 in 6.2 mi North 3.5 mph - N/A   Partly Cloudy
9:30 AM 46.4 °F - 44.6 °F 93% 30.30 in 6.2 mi Variable 1.2 mph - N/A   Partly Cloudy
10:00 AM 50.0 °F - 46.4 °F 87% 30.30 in 6.2 mi NE 3.5 mph - N/A   Partly Cloudy
10:30 AM 53.6 °F - 46.4 °F 77% 30.30 in 6.2 mi NE 8.1 mph - N/A   Partly Cloudy
11:00 AM 53.6 °F - 46.4 °F 77% 30.30 in 6.2 mi ENE 8.1 mph - N/A   Partly Cloudy
11:30 AM 55.4 °F - 46.4 °F 72% 30.30 in 6.2 mi ENE 5.8 mph - N/A   Partly Cloudy
12:00 PM 55.4 °F - 44.6 °F 67% 30.30 in 6.2 mi ENE 3.5 mph 18.4 mph N/A   Scattered Clouds
12:30 PM 57.2 °F - 44.6 °F 63% 30.30 in 6.2 mi ENE 3.5 mph - N/A   Scattered Clouds
1:00 PM 58 °F - 43 °F 46% 30.30 in 19 mi Calm Calm - -   Partly Cloudy
1:00 PM 57.2 °F - 42.8 °F 59% 30.30 in 6.2 mi Calm Calm - N/A   Scattered Clouds
1:30 PM 59.0 °F - 41.0 °F 51% 30.27 in 6.2 mi Variable 2.3 mph - N/A   Scattered Clouds
2:00 PM 55.4 °F - 44.6 °F 67% 30.27 in 6.2 mi SSW 8.1 mph - N/A   Scattered Clouds
2:30 PM 55.4 °F - 44.6 °F 67% 30.27 in 6.2 mi SW 4.6 mph - N/A   Scattered Clouds
3:00 PM 55.4 °F - 46.4 °F 72% 30.27 in 6.2 mi South 4.6 mph - N/A   Scattered Clouds
3:30 PM 53.6 °F - 46.4 °F 77% 30.27 in 5.0 mi South 2.3 mph 15.0 mph N/A   Drizzle
3:38 PM 51.8 °F - 46.4 °F 82% 30.27 in 5.0 mi SSE 3.5 mph - N/A Rain Rain
4:00 PM 51.8 °F - 48.2 °F 88% 30.27 in 5.6 mi ESE 4.6 mph - N/A Rain Rain
4:23 PM 50.0 °F - 48.2 °F 94% 30.27 in 6.2 mi SE 5.8 mph - N/A Rain Light Rain
4:30 PM 50.0 °F - 48.2 °F 94% 30.27 in 6.2 mi ESE 4.6 mph - N/A   Mostly Cloudy
5:00 PM 50.0 °F - 48.2 °F 94% 30.27 in 6.2 mi East 5.8 mph - N/A   Mostly Cloudy
5:30 PM 50.0 °F - 48.2 °F 94% 30.24 in 6.2 mi ENE 3.5 mph - N/A   Mostly Cloudy
6:00 PM 50.0 °F - 48.2 °F 94% 30.27 in 6.2 mi NE 1.2 mph - N/A   Mostly Cloudy
6:30 PM 50.0 °F - 48.2 °F 94% 30.27 in 6.2 mi ENE 4.6 mph - N/A   Scattered Clouds
7:00 PM 48 °F - 46 °F 91% 30.27 in 12 mi NE 2.3 mph - -   Partly Cloudy
7:00 PM 48.2 °F - 46.4 °F 93% 30.27 in 6.2 mi NE 2.3 mph - N/A   Scattered Clouds
8:00 PM 46.4 °F - 44.6 °F 93% 30.27 in 6.2 mi Calm Calm - N/A   Scattered Clouds
8:30 PM 44.6 °F - 44.6 °F 100% 30.27 in 6.2 mi Calm Calm - N/A   Scattered Clouds
9:00 PM 44.6 °F - 42.8 °F 93% 30.27 in 6.2 mi Calm Calm - N/A   Scattered Clouds
9:30 PM 42.8 °F - 41.0 °F 93% 30.27 in 6.2 mi Calm Calm - N/A   Scattered Clouds
10:00 PM 42.8 °F - 41.0 °F 93% 30.27 in 6.2 mi Calm Calm - N/A   Scattered Clouds
10:30 PM 41.0 °F - 41.0 °F 100% 30.27 in 6.2 mi Calm Calm - N/A   Scattered Clouds
11:00 PM 39.2 °F - 39.2 °F 100% 30.27 in 6.2 mi Calm Calm - N/A   Scattered Clouds
11:30 PM 37.4 °F - 37.4 °F 100% 30.27 in 6.2 mi Calm Calm - N/A   Scattered Clouds